Weather History for Presque Isle, ME

Change the Weather History Date:

Wednesday, November 21, 2012

  Actual Average Record
Temperature  
Mean Temperature 28 °F -  
Max Temperature 37 °F 34 °F 61 °F (1953)
Min Temperature 19 °F 22 °F -8 °F (1933)
Degree Days  
Heating Degree Days 37    
Moisture  
Dew Point 24 °F    
Average Humidity 80    
Maximum Humidity 93    
Minimum Humidity 74    
Precipitation  
Precipitation 0.00 in - - ()
Sea Level Pressure  
Sea Level Pressure 30.19 in    
Wind  
Wind Speed 1 mph (SE)    
Max Wind Speed 9 mph    
Max Gust Speed -    
Visibility 9 miles    
Events      
Averages and records for this station are not official NWS values.
T = Trace of Precipitation, MM = Missing Value Source: NWS Daily Summary

Daily Weather History Graph

Daily Weather History Graph

Search for Another Location

Airport:

Trip Planner

Search our weather history database for the weather conditions in past years. The results will help you decide how hot, cold, wet, or windy it might be!

Date:

Astronomy

Nov. 21, 2012 Rise Set
Actual Time 6:43 AM EST 3:52 PM EST
Civil Twilight 6:10 AM EST 4:25 PM EST
Nautical Twilight 5:32 AM EST 5:03 PM EST
Astronomical Twilight 4:56 AM EST 5:39 PM EST
Moon 12:27 PM EST (11/21) No Moon Set
Length of Visible Light 10h 15m
Length of Day
9h 08m
First Quarter, 61% of the Moon is Illuminated
Nov 21
First Quarter
Nov 28
Full
Dec 6
Last Quarter
Dec 13
New
Dec 20
First Quarter

Hourly Weather History & Observations

Time (EST) Temp. Windchill Dew Point Humidity Pressure Visibility Wind Dir Wind Speed Gust Speed Precip Events Conditions
12:15 AM 21.2 °F - 15.8 °F 80% 30.16 in - Calm Calm - N/A   Clear
12:35 AM 21.2 °F - 15.8 °F 80% 30.16 in - Calm Calm - N/A   Clear
12:55 AM 21.2 °F - 17.6 °F 86% 30.16 in 10.0 mi Calm Calm - N/A   Clear
1:15 AM 21.2 °F - 15.8 °F 80% 30.17 in 10.0 mi Calm Calm - N/A   Clear
1:35 AM 21.2 °F - 15.8 °F 80% 30.17 in 10.0 mi Calm Calm - N/A   Clear
1:55 AM 19.4 °F - 15.8 °F 86% 30.17 in 10.0 mi Calm Calm - N/A   Clear
2:15 AM 19.4 °F - 14.0 °F 80% 30.18 in 10.0 mi Calm Calm - N/A   Clear
2:35 AM 21.2 °F - 15.8 °F 80% 30.18 in 10.0 mi Calm Calm - N/A   Clear
2:55 AM 21.2 °F - 15.8 °F 80% 30.18 in 10.0 mi Calm Calm - N/A   Clear
3:15 AM 19.4 °F - 15.8 °F 86% 30.19 in 10.0 mi Calm Calm - N/A   Clear
3:35 AM 19.4 °F - 12.2 °F 74% 30.19 in 10.0 mi Calm Calm - N/A   Scattered Clouds
3:55 AM 19.4 °F - 15.8 °F 86% 30.19 in 10.0 mi Calm Calm - N/A   Overcast
4:15 AM 23.0 °F - 17.6 °F 80% 30.20 in 10.0 mi Calm Calm - N/A   Overcast
4:35 AM 23.0 °F - 17.6 °F 80% 30.20 in 10.0 mi Calm Calm - N/A   Overcast
4:55 AM 24.8 °F - 19.4 °F 80% 30.20 in - Calm Calm - N/A   Overcast
5:15 AM 24.8 °F - 19.4 °F 80% 30.21 in - Calm Calm - N/A   Overcast
5:35 AM 24.8 °F - 19.4 °F 80% 30.21 in - Calm Calm - N/A   Overcast
5:55 AM 26.6 °F - 21.2 °F 80% 30.21 in - Calm Calm - N/A   Overcast
6:15 AM 26.6 °F - 23.0 °F 86% 30.22 in 10.0 mi Calm Calm - N/A   Overcast
6:35 AM 26.6 °F - 21.2 °F 80% 30.23 in 10.0 mi Calm Calm - N/A   Overcast
6:55 AM 26.6 °F - 21.2 °F 80% 30.23 in 8.0 mi Calm Calm - N/A   Overcast
7:15 AM 26.6 °F - 21.2 °F 80% 30.23 in - Calm Calm - N/A   Overcast
7:35 AM 28.4 °F - 21.2 °F 74% 30.24 in - Calm Calm - N/A   Overcast
7:55 AM 28.4 °F - 24.8 °F 86% 30.25 in - Calm Calm - N/A   Overcast
8:15 AM 28.4 °F - 24.8 °F 86% 30.26 in - Calm Calm - N/A   Overcast
8:35 AM 30.2 °F - 24.8 °F 80% 30.26 in - Calm Calm - N/A   Overcast
8:55 AM 30.2 °F - 24.8 °F 80% 30.25 in 7.0 mi Calm Calm - N/A   Overcast
9:15 AM 32.0 °F 28.7 °F 26.6 °F 80% 30.25 in 5.0 mi ENE 3.5 mph - N/A   Overcast
9:55 AM 33.8 °F - 28.4 °F 81% 30.24 in 7.0 mi Calm Calm - N/A   Overcast
10:16 AM 35.6 °F - 28.4 °F 75% 30.24 in 8.0 mi Calm Calm - N/A   Overcast
10:35 AM 35.6 °F 30.7 °F 30.2 °F 81% 30.23 in 9.0 mi SE 5.8 mph - N/A   Overcast
10:55 AM 35.6 °F 29.9 °F 30.2 °F 81% 30.22 in 9.0 mi SE 6.9 mph - N/A   Overcast
11:15 AM 35.6 °F 29.9 °F 30.2 °F 81% 30.21 in 9.0 mi SE 6.9 mph - N/A   Overcast
11:35 AM 35.6 °F 29.2 °F 30.2 °F 81% 30.20 in 10.0 mi SSE 8.1 mph - N/A   Overcast
11:55 AM 37.4 °F 30.8 °F 30.2 °F 75% 30.19 in 10.0 mi SE 9.2 mph - N/A   Overcast
12:15 PM 37.4 °F 32.1 °F 30.2 °F 75% 30.19 in 9.0 mi SE 6.9 mph - N/A   Overcast
12:35 PM 37.4 °F 32.1 °F 32.0 °F 81% 30.19 in 10.0 mi SE 6.9 mph - N/A   Overcast
12:55 PM 37.4 °F 32.8 °F 30.2 °F 75% 30.20 in 10.0 mi SE 5.8 mph - N/A   Overcast
1:15 PM 37.4 °F 32.8 °F 30.2 °F 75% 30.19 in 10.0 mi SE 5.8 mph - N/A   Overcast
1:35 PM 37.4 °F 32.1 °F 30.2 °F 75% 30.19 in 10.0 mi SE 6.9 mph - N/A   Overcast
1:55 PM 37.4 °F 33.8 °F 32.0 °F 81% 30.19 in 10.0 mi SE 4.6 mph - N/A   Overcast
2:15 PM 37.4 °F 33.8 °F 30.2 °F 75% 30.18 in 10.0 mi SE 4.6 mph - N/A   Overcast
2:35 PM 37.4 °F 32.8 °F 30.2 °F 75% 30.18 in 10.0 mi SE 5.8 mph - N/A   Overcast
2:55 PM 37.4 °F 32.8 °F 30.2 °F 75% 30.18 in 10.0 mi SE 5.8 mph - N/A   Overcast
3:15 PM 37.4 °F 34.9 °F 30.2 °F 75% 30.19 in 10.0 mi SE 3.5 mph - N/A   Overcast
3:35 PM 37.4 °F 32.8 °F 30.2 °F 75% 30.18 in 10.0 mi SE 5.8 mph - N/A   Overcast
3:55 PM 37.4 °F 34.9 °F 30.2 °F 75% 30.19 in 10.0 mi SSE 3.5 mph - N/A   Overcast
4:15 PM 35.6 °F 31.7 °F 30.2 °F 81% 30.18 in 10.0 mi SSE 4.6 mph - N/A   Overcast
4:35 PM 35.6 °F 32.8 °F 30.2 °F 81% 30.19 in 10.0 mi SSE 3.5 mph - N/A   Overcast
5:35 PM 35.6 °F 30.7 °F 28.4 °F 75% 30.19 in 10.0 mi South 5.8 mph - N/A   Overcast
5:55 PM 33.8 °F - 28.4 °F 81% 30.18 in 10.0 mi Calm Calm - N/A   Overcast
6:35 PM 33.8 °F - 28.4 °F 81% 30.17 in - Calm Calm - N/A   Overcast
6:55 PM 33.8 °F - 28.4 °F 81% 30.17 in - Calm Calm - N/A   Overcast
7:15 PM 33.8 °F - 28.4 °F 81% 30.17 in 10.0 mi Calm Calm - N/A   Mostly Cloudy
7:36 PM 30.2 °F - 26.6 °F 86% 30.17 in 10.0 mi Calm Calm - N/A   Partly Cloudy
7:55 PM 28.4 °F - 24.8 °F 86% 30.16 in 6.0 mi Calm Calm - N/A   Clear
8:15 PM 30.2 °F - 26.6 °F 86% 30.16 in - Calm Calm - N/A   Unknown
8:35 PM 28.4 °F - 23.0 °F 80% 30.17 in - Calm Calm - N/A   Clear
8:55 PM 30.2 °F - 24.8 °F 80% 30.16 in 6.0 mi Calm Calm - N/A   Clear
9:15 PM 30.2 °F - 26.6 °F 86% 30.16 in 4.0 mi Calm Calm - N/A   Clear
9:35 PM 30.2 °F - 26.6 °F 86% 30.15 in 5.0 mi Calm Calm - N/A   Clear
9:55 PM 30.2 °F - 26.6 °F 86% 30.15 in 4.0 mi Calm Calm - N/A   Clear
10:15 PM 26.6 °F - 24.8 °F 93% 30.14 in - Calm Calm - N/A   Unknown
10:35 PM 26.6 °F - 23.0 °F 86% 30.15 in - Calm Calm - N/A   Unknown
10:55 PM 26.6 °F - 21.2 °F 80% 30.15 in - Calm Calm - N/A   Clear
11:15 PM 26.6 °F - 21.2 °F 80% 30.15 in 4.0 mi Calm Calm - N/A   Clear
11:35 PM 28.4 °F - 24.8 °F 86% 30.14 in 5.0 mi Calm Calm - N/A   Clear
11:55 PM 24.8 °F - 17.6 °F 74% 30.14 in 5.0 mi Calm Calm - N/A   Partly Cloudy